Location: Julian California
(33.0790°N, 116.6010°W)
Time: 17:37:07
(UTC-07:00)

H-2A R/B - Pass Details

Date: 14 June 2018
Orbit: 735 x 836 km, 98.3° (Epoch: 24 June)

Event Time Altitude Azimuth Distance (km) Brightness Sun altitude
Exits shadow 20:38:42 - 110° (ESE) 2,403 3.9 -8.3°
Reaches altitude 10° 20:38:58 10° 107° (ESE) 2,332 3.9 -8.4°
Maximum altitude 20:42:21 18° 66° (ENE) 1,866 3.7 -9.0°
Drops below altitude 10° 20:45:47 10° 25° (NNE) 2,384 4.7 -9.5°
Sets 20:48:51 0° 7° (N) 3,337 5.7 -10.1°
